RADFXSAT (FOX-1B)

Last updated on Wed Mar 11 2026 00:03:15 GMT+0000 (Coordinated Universal Time)

1 43017U 17073E 26069.52236804 .00012283 00000+0 55615-3 0 9996 2 43017 97.4849 298.8003 0154504 309.2467 49.5135 15.10897225450486
UTC large
Height (km)
Speed (km/s)
/
Latitude / Longitude
Inclination (degrees)
Orbital Period (minutes)
Azimuth
Elevation
Range (km)
Doppler Factor

Next 0 passes for location: London (51.5072 / 0.1276)

Sorry there are no passes over London.